Waarnemingen

Advertentie
Mijn weer
Norderney, Duitsland (10113): temperatuur & dauwpunt: 17.10.2017 02:00:00 - 23.10.2017 02:00:00 (CEST)Norderney, Duitsland (10113): temperatuur 5cm & temperatuur -5cm: 17.10.2017 02:00:00 - 23.10.2017 02:00:00 (CEST)Norderney, Duitsland (10113): temperatuur -20cm & temperatuur -100cm: 17.10.2017 02:00:00 - 23.10.2017 02:00:00 (CEST)Norderney, Duitsland (10113): windsnelheid & windstoten: 17.10.2017 02:00:00 - 23.10.2017 02:00:00 (CEST)Norderney, Duitsland (10113): windrichting: 17.10.2017 02:00:00 - 23.10.2017 02:00:00 (CEST)Norderney, Duitsland (10113): luchtdruk: 17.10.2017 02:00:00 - 23.10.2017 02:00:00 (CEST)Norderney, Duitsland (10113): zicht: 17.10.2017 02:00:00 - 23.10.2017 02:00:00 (CEST)Norderney, Duitsland (10113): Zonneschijnduur: 17.10.2017 02:00:00 - 23.10.2017 02:00:00 (CEST)Norderney, Duitsland (10113): neerslag: 17.10.2017 02:00:00 - 23.10.2017 02:00:00 (CEST)
Datum & Tijd tt [°C] td [°C] tt 5cm [°C] tt -5cm [°C] tt -20cm [°C] tt -100cm [°C] ff [km/u] ff [kn] fx [km/u] fx [kn] dd ppp [hPa] vv [km] sd [min] rr [mm]
23.10.2017 02:00:00 12,3 11,1 11,4 11,4 11,9 14,0 21 12 38 20 W 1009,1 8 0 3,4
23.10.2017 01:00:00 11,5 11,0 11,2 11,2 11,9 14,1 18 10 39 21 ZZW 1009,1 2,5 0 1,4
23.10.2017 00:00:00 11,7 10,7 10,7 11,1 12,0 14,1 24 13 42 23 ZW 1009,0 35 0 0,0
22.10.2017 23:00:00 11,5 10,1 10,8 11,2 12,0 14,1 25 14 43 23 ZW 1008,8 39 0 0,0
22.10.2017 22:00:00 11,4 9,5 11,1 11,1 12,2 14,1 26 14 48 26 ZW 1008,5 47 0 0,0
22.10.2017 21:00:00 11,3 9,3 10,8 11,0 12,3 14,1 24 13 42 23 ZZW 1008,4 53 0 0,0
22.10.2017 20:00:00 11,3 8,8 10,4 11,5 12,5 14,1 26 14 41 22 ZW 1008,4 65 0 0,0
22.10.2017 19:00:00 12,0 8,8 11,1 12,0 12,7 14,1 25 13 41 22 ZW 1008,1 52 2 0,0
22.10.2017 18:00:00 12,4 9,6 11,8 12,7 12,7 14,1 20 11 41 22 ZW 1007,7 34 31 0,0
22.10.2017 17:00:00 12,5 9,5 12,2 13,4 12,6 14,1 20 11 38 20 ZW 1007,2 58 42 0,0
22.10.2017 16:00:00 13,4 8,4 14,0 13,8 12,4 14,2 23 13 40 22 WZW 1006,8 19 38 0,0
22.10.2017 15:00:00 13,2 9,3 12,4 13,6 12,1 14,2 21 11 36 19 ZW 1006,4 34 21 0,0
22.10.2017 14:00:00 13,4 9,5 13,2 13,3 11,7 14,2 20 11 37 20 WZW 1006,0 27 25 0,0
22.10.2017 13:00:00 12,5 10,5 12,6 12,2 11,4 14,2 21 11 35 19 ZW 1005,7 24 4 0,0
22.10.2017 12:00:00 11,8 10,6 11,6 11,3 11,3 14,2 19 10 35 19 ZZW 1005,6 44 0 0,1
22.10.2017 11:00:00 10,9 10,0 10,6 10,6 11,2 14,2 20 11 41 22 ZZW 1005,0 22 0 0,0
22.10.2017 10:00:00 10,2 9,1 9,8 10,2 11,2 14,2 27 14 45 24 Z 1004,9 29 0 0,0
22.10.2017 09:00:00 9,8 8,7 9,2 10,0 11,2 14,2 26 14 44 24 Z 1004,7 42 0 0,1
22.10.2017 08:00:00 9,9 8,2 9,0 9,9 11,3 14,2 28 15 46 25 Z 1004,7 14 0 1,1
22.10.2017 07:00:00 10,5 7,7 9,1 9,8 11,4 14,2 28 15 49 26 Z 1005,0 14 0 0,1
22.10.2017 06:00:00 10,9 7,4 9,8 9,8 11,5 14,2 26 14 47 25 Z 1005,1 56 0 0,0
22.10.2017 05:00:00 10,9 7,9 9,8 9,8 11,6 14,3 26 14 43 23 Z 1005,4 48 0 0,0
22.10.2017 04:00:00 10,9 8,3 9,7 9,9 11,8 14,3 24 13 38 21 Z 1005,8 44 0 0,0
22.10.2017 03:00:00 11,0 8,2 9,6 10,1 11,9 14,3 22 12 37 20 Z 1006,3 53 0 0,0
22.10.2017 02:00:00 11,1 8,2 9,5 10,4 12,1 14,3 22 12 37 20 Z 1006,9 52 0 0,0
22.10.2017 01:00:00 12,2 8,2 10,1 10,6 12,3 14,3 22 12 37 20 Z 1007,0 52 0 0,0
22.10.2017 00:00:00 11,3 8,7 9,6 11,0 12,4 14,3 17 9 27 15 ZZO 1007,4 68 0 0,0
21.10.2017 23:00:00 12,0 9,0 10,5 11,4 12,5 14,3 14 8 33 18 Z 1007,7 70 0 0,0
21.10.2017 22:00:00 11,9 8,5 10,1 11,4 12,7 14,3 20 11 39 21 ZZW 1008,3 40 0 0,1
21.10.2017 21:00:00 12,7 9,2 10,8 11,6 12,9 14,3 15 8 25 13 ZZW 1008,3 70 0 0,0
21.10.2017 20:00:00 12,6 9,2 10,7 12,1 13,0 14,3 12 7 21 11 Z 1008,1 70 0 0,0
21.10.2017 19:00:00 12,2 7,6 10,0 12,7 13,1 14,3 16 8 57 31 ZW 1008,2 53 0 2,4
21.10.2017 18:00:00 13,9 12,2 12,6 13,2 13,1 14,3 19 10 29 16 Z 1007,7 19 49 0,0
21.10.2017 17:00:00 14,3 12,2 13,8 13,6 12,9 14,3 18 10 33 18 Z 1007,8 19 55 0,0
21.10.2017 16:00:00 13,4 12,2 13,1 13,0 12,8 14,3 18 10 34 18 Z 1007,9 14 0 0,0
21.10.2017 15:00:00 12,6 11,8 12,4 12,8 12,7 14,3 21 12 35 19 Z 1008,1 9 0 0,0
21.10.2017 14:00:00 11,9 11,4 11,8 12,5 12,6 14,3 21 12 39 21 Z 1008,2 8 0 0,6
21.10.2017 13:00:00 11,5 10,6 11,2 12,2 12,5 14,3 26 14 41 22 Z 1008,6 3,9 0 0,5
21.10.2017 12:00:00 11,4 10,0 10,8 11,8 12,5 14,3 25 13 40 21 ZZO 1008,7 5 0 0,2
21.10.2017 11:00:00 11,8 8,9 11,0 11,5 12,5 14,3 23 12 35 19 ZZO 1008,7 24 0 0,0
21.10.2017 10:00:00 10,9 9,0 10,0 11,3 12,6 14,3 22 12 32 18 ZZO 1009,3 20 0 0,2
21.10.2017 09:00:00 10,7 8,7 9,8 11,3 12,8 14,3 18 10 27 14 ZZO 1009,5 32 0 0,0
21.10.2017 08:00:00 10,8 8,8 9,8 11,4 12,9 14,3 16 9 27 15 Z 1009,9 29 0 0,0
21.10.2017 07:00:00 11,0 9,2 9,9 11,6 13,1 14,3 18 10 36 19 Z 1009,7 26 0 0,0
21.10.2017 06:00:00 11,5 9,6 10,2 11,9 13,2 14,3 22 12 38 21 ZZW 1009,7 28 0 0,0
21.10.2017 05:00:00 12,5 11,2 11,3 12,3 13,3 14,3 20 11 36 20 ZZW 1009,4 21 0 0,0
21.10.2017 04:00:00 12,9 11,4 11,9 12,8 13,4 14,3 23 13 36 19 ZW 1009,5 30 0 1,1
21.10.2017 03:00:00 12,7 12,1 12,4 12,8 13,4 14,3 23 13 39 21 WZW 1009,4 2,9 0 2,4
21.10.2017 02:00:00 13,0 12,2 12,5 12,7 13,5 14,3 19 10 36 19 ZZW 1009,1 10 0 0,0
21.10.2017 01:00:00 12,7 11,4 11,9 12,7 13,6 14,3 22 12 41 22 ZZW 1008,9 40 0 0,0
21.10.2017 00:00:00 12,7 11,4 12,1 12,8 13,7 14,3 25 13 - - Z 1008,8 31 - -
20.10.2017 23:00:00 - - - - - - - - - - - - - - -
20.10.2017 22:00:00 - - - - - - - - - - - - - - -
20.10.2017 21:00:00 12,7 11,0 12,2 13,3 14,1 14,3 27 15 44 24 Z 1007,8 38 - -
20.10.2017 20:00:00 13,0 11,1 12,8 13,6 14,2 14,3 29 16 47 25 Z 1007,3 34 - 0,0
20.10.2017 19:00:00 - - - - - - - - - - - - - - -
20.10.2017 18:00:00 - - - - - - 27 15 - - Z - - - -
20.10.2017 17:00:00 - - - - - - - - - - - - - - -
20.10.2017 16:00:00 - - - - - - - - - - - - - - -
20.10.2017 15:00:00 - - - - - - - - 39 21 - - - 60 0,0
20.10.2017 14:00:00 15,7 12,0 17,2 15,4 13,8 14,3 20 11 40 22 ZZW 1006,2 21 48 0,0
20.10.2017 13:00:00 15,1 12,9 14,7 14,4 13,7 14,3 22 12 38 20 Z 1006,0 19 0 0,2
20.10.2017 12:00:00 14,9 12,8 14,3 14,1 13,6 14,3 27 15 41 22 Z 1006,1 16 0 0,0
20.10.2017 11:00:00 14,5 12,8 13,7 13,6 13,5 14,3 26 14 42 23 ZZO 1006,1 20 2 0,3
20.10.2017 10:00:00 14,4 13,0 13,4 13,3 13,5 14,3 26 14 43 23 ZZO 1006,3 6 0 0,9
20.10.2017 09:00:00 14,9 12,5 13,9 13,2 13,5 14,3 26 14 38 21 ZZO 1006,0 10 0 0,0
20.10.2017 08:00:00 15,0 12,0 14,1 13,1 13,5 14,3 21 12 31 17 ZZO 1005,7 16 0 0,0
20.10.2017 07:00:00 15,1 12,3 14,0 13,3 13,5 14,3 20 11 35 19 ZZO 1006,1 15 0 0,0
20.10.2017 06:00:00 15,1 12,6 13,6 13,3 13,5 14,3 23 12 37 20 ZZO 1006,4 9 0 0,2
20.10.2017 05:00:00 15,0 12,2 14,4 13,2 13,5 14,3 17 9 31 17 ZZO 1007,0 10 0 0,0
20.10.2017 04:00:00 14,9 12,2 14,3 13,1 13,5 14,3 20 11 29 15 ZZO 1007,5 9 0 0,0
20.10.2017 03:00:00 14,7 12,4 14,0 13,0 13,5 14,3 16 9 27 14 ZZO 1007,7 9 0 0,0
20.10.2017 02:00:00 14,4 12,3 13,5 12,8 13,6 14,3 16 8 23 12 ZO 1007,8 8 0 0,0
20.10.2017 01:00:00 14,4 12,2 12,9 12,9 13,7 14,3 16 8 25 14 ZZO 1007,9 8 0 0,0
20.10.2017 00:00:00 13,9 12,2 12,5 13,0 13,9 14,4 16 8 24 13 ZO 1008,2 7 0 0,0
19.10.2017 23:00:00 13,7 12,3 12,6 13,2 14,0 14,4 14 8 24 13 ZO 1008,7 6 0 0,0
19.10.2017 22:00:00 13,6 12,3 12,4 13,5 14,2 14,4 16 8 27 15 ZO 1009,0 5 0 0,0
19.10.2017 21:00:00 13,9 12,4 12,6 13,8 14,3 14,4 17 9 28 15 ZO 1009,3 6 0 0,0
19.10.2017 20:00:00 14,3 12,6 13,0 14,3 14,5 14,4 16 9 27 15 ZO 1009,4 6 0 0,0
19.10.2017 19:00:00 15,1 13,4 13,8 14,9 14,5 14,4 17 9 24 13 OZO 1009,4 6 0 0,0
19.10.2017 18:00:00 16,1 14,0 15,0 15,7 14,4 14,4 13 7 19 10 OZO 1009,6 6 7 0,0
19.10.2017 17:00:00 17,0 14,1 17,0 16,1 14,2 14,4 13 7 19 10 OZO 1010,0 7 15 0,0
19.10.2017 16:00:00 16,8 13,8 17,7 15,9 14,0 14,4 10 6 18 10 ZO 1010,5 7 0 0,0
19.10.2017 15:00:00 16,2 13,6 16,6 15,6 13,7 14,4 14 8 20 11 ZO 1010,7 6 0 0,0
19.10.2017 14:00:00 15,5 13,1 16,3 15,2 13,4 14,4 12 7 22 12 ZZO 1011,4 5 10 0,0
19.10.2017 13:00:00 14,7 12,8 17,0 14,5 13,1 14,4 16 8 24 13 ZZO 1011,8 4,5 27 0,0
19.10.2017 12:00:00 12,9 12,4 13,9 13,5 13,0 14,4 13 7 23 12 ZZO 1011,8 2,7 0 0,0
19.10.2017 11:00:00 12,3 12,0 13,2 12,8 12,9 14,4 14 8 22 12 ZO 1011,6 2,2 0 0,0
19.10.2017 10:00:00 11,7 11,5 11,8 12,3 12,9 14,4 13 7 22 12 ZO 1012,0 1,5 0 0,0
19.10.2017 09:00:00 11,6 11,5 11,2 12,0 12,9 14,4 14 8 22 12 ZO 1011,9 2,0 0 0,0
19.10.2017 08:00:00 11,4 11,2 11,0 12,1 12,9 14,4 15 8 22 12 ZO 1011,8 2,0 0 0,0
19.10.2017 07:00:00 11,4 11,1 11,2 12,1 13,0 14,4 16 8 22 12 ZO 1011,9 1,6 0 0,0
19.10.2017 06:00:00 11,6 11,0 11,1 12,1 13,1 14,4 14 7 19 11 ZO 1012,1 4,0 0 0,0
19.10.2017 05:00:00 11,8 11,1 11,2 12,1 13,2 14,4 14 8 22 12 ZO 1012,1 5 0 0,0
19.10.2017 04:00:00 11,9 11,0 11,1 12,2 13,3 14,4 13 7 22 12 ZO 1012,5 7 0 0,0
19.10.2017 03:00:00 12,3 11,2 11,4 12,3 13,3 14,4 13 7 20 11 ZO 1012,8 9 0 0,0
19.10.2017 02:00:00 12,3 10,9 11,5 12,5 13,4 14,4 13 7 20 11 ZO 1012,8 12 0 0,0
19.10.2017 01:00:00 12,6 10,9 11,7 12,6 13,5 14,4 12 7 19 10 OZO 1013,0 14 0 0,0
19.10.2017 00:00:00 12,6 11,0 11,5 12,7 13,7 14,5 9 5 18 10 OZO 1013,4 18 0 0,0
18.10.2017 23:00:00 12,4 11,1 11,3 12,9 13,8 14,5 11 6 17 9 O 1013,7 15 0 0,0
18.10.2017 22:00:00 12,5 11,2 11,3 13,3 13,9 14,5 9 5 17 9 O 1013,7 14 0 0,0
18.10.2017 21:00:00 13,0 11,8 12,1 13,6 14,0 14,5 10 5 21 11 O 1013,9 15 0 0,0
18.10.2017 20:00:00 13,5 10,7 13,1 14,0 14,1 14,5 12 6 19 11 O 1013,9 28 0 0,0
18.10.2017 19:00:00 13,7 11,1 13,4 14,4 14,1 14,5 10 6 23 12 O 1013,7 17 0 0,0
18.10.2017 18:00:00 13,7 11,5 13,7 14,8 14,0 14,5 16 9 22 12 ONO 1013,8 18 0 0,0
18.10.2017 17:00:00 14,4 11,9 14,6 15,0 13,9 14,5 13 7 17 9 NO 1014,1 10 0 0,0
18.10.2017 16:00:00 14,6 11,3 15,2 14,9 13,7 14,5 11 6 16 8 O 1014,1 23 0 0,0
18.10.2017 15:00:00 14,2 11,5 14,3 14,8 13,5 14,5 11 6 14 8 NO 1014,4 10 0 0,0
18.10.2017 14:00:00 14,4 11,1 15,5 14,9 13,2 14,5 4 2 11 6 OZO 1014,8 26 0 0,0
18.10.2017 13:00:00 13,9 10,2 15,8 14,4 12,9 14,5 6 3 10 6 ZO 1015,2 26 34 0,0
18.10.2017 12:00:00 13,6 11,1 16,6 13,2 12,6 14,5 5 3 9 5 Z 1015,2 16 60 0,0
18.10.2017 11:00:00 12,2 10,8 12,3 12,1 12,5 14,5 6 3 10 5 Z 1015,5 11 8 0,0
18.10.2017 10:00:00 12,0 11,2 11,7 11,4 12,6 14,5 6 3 12 6 Z 1015,4 9 2 0,0
18.10.2017 09:00:00 10,9 10,4 10,1 11,0 12,7 14,5 10 5 14 7 Z 1015,2 7 0 0,0
18.10.2017 08:00:00 10,9 10,4 9,8 11,1 12,8 14,5 10 5 15 8 Z 1015,4 6 0 0,0
18.10.2017 07:00:00 11,4 10,7 10,0 11,3 12,9 14,5 9 5 16 9 ZZW 1015,4 9 0 0,0
18.10.2017 06:00:00 11,9 10,5 10,5 11,5 13,0 14,5 11 6 19 11 ZW 1015,5 17 0 0,0
18.10.2017 05:00:00 12,0 10,7 10,7 11,6 13,1 14,5 12 7 23 13 ZW 1015,5 19 0 0,0
18.10.2017 04:00:00 12,5 10,7 11,1 11,6 13,3 14,5 15 8 24 13 ZW 1016,0 24 0 0,0
18.10.2017 03:00:00 12,3 10,8 10,8 11,8 13,4 14,5 16 8 26 14 ZW 1016,5 22 0 0,0
18.10.2017 02:00:00 12,4 10,6 11,0 12,0 13,6 14,5 16 9 29 16 ZW 1016,6 23 0 0,0
18.10.2017 01:00:00 12,5 10,5 11,1 12,1 13,7 14,5 18 10 31 17 ZW 1016,7 24 0 0,0
18.10.2017 00:00:00 12,6 10,2 11,2 12,4 13,9 14,5 20 11 33 18 ZW 1016,8 25 0 0,0
17.10.2017 23:00:00 12,9 10,2 11,7 12,7 14,1 14,5 18 10 30 16 ZW 1017,2 26 0 0,0
17.10.2017 22:00:00 13,0 10,2 11,9 12,9 14,3 14,5 17 9 32 17 ZW 1017,2 24 0 0,0
17.10.2017 21:00:00 13,3 10,2 11,9 13,2 14,5 14,5 22 12 36 19 ZW 1016,8 26 0 0,0
17.10.2017 20:00:00 13,6 10,4 12,3 13,7 14,6 14,5 21 11 36 20 ZW 1017,2 26 0 0,0
17.10.2017 19:00:00 13,8 10,5 12,6 14,2 14,8 14,5 20 11 36 19 ZW 1016,9 29 0 0,0
17.10.2017 18:00:00 14,3 10,4 13,4 14,9 14,9 14,5 24 13 37 20 ZW 1017,3 32 0 0,0
17.10.2017 17:00:00 14,8 10,0 14,3 15,5 14,8 14,5 23 12 46 25 ZW 1017,6 37 20 0,0
17.10.2017 16:00:00 15,2 9,6 15,9 15,9 14,7 14,5 28 15 44 24 ZW 1017,7 21 57 0,0
17.10.2017 15:00:00 15,2 10,4 16,0 15,8 14,5 14,5 27 15 51 27 ZW 1017,9 13 60 0,0
17.10.2017 14:00:00 15,1 10,6 16,3 15,3 14,3 14,5 26 14 45 24 ZW 1018,3 13 60 0,0
17.10.2017 13:00:00 14,5 11,2 15,6 14,7 14,1 14,5 26 14 40 22 ZW 1018,8 30 53 0,0
17.10.2017 12:00:00 14,1 10,7 14,7 14,0 14,0 14,5 25 14 40 21 ZW 1018,7 20 2 0,0
17.10.2017 11:00:00 14,2 10,7 14,3 13,4 14,1 14,4 27 15 45 24 ZW 1018,9 17 0 0,0
17.10.2017 10:00:00 14,0 10,8 13,2 13,0 14,2 14,4 25 14 44 24 ZW 1018,7 22 0 0,0
17.10.2017 09:00:00 14,0 10,9 12,7 13,0 14,3 14,4 25 14 38 21 ZW 1018,5 19 0 0,0
17.10.2017 08:00:00 14,1 11,1 12,7 13,2 14,5 14,4 21 12 35 19 ZW 1018,2 22 0 0,0
17.10.2017 07:00:00 - - - - - - - - - - - - - - -
17.10.2017 06:00:00 - - - - - - - - - - - - - - -
17.10.2017 05:00:00 - - - - - - - - - - - - - - -
17.10.2017 04:00:00 - - - - - - - - - - - - - - -
17.10.2017 03:00:00 - - - - - - - - - - - - - - -
17.10.2017 02:00:00 - - - - - - - - - - - - - - -

tt = temperatuur
td = dauwpunt
tt 5cm = temperatuur 5cm
tt -5cm = temperatuur -5cm
tt -20cm = temperatuur -20cm
tt -100cm = temperatuur -100cm
ff = windsnelheid
fx = windstoten
dd = windrichting
ppp = luchtdruk
vv = zicht
sd = Zonneschijnduur
rr = neerslag

Weerstations in de omgeving